www.pogodaiklimat.ru

Погода и климат >> Архив погоды >> Азербайджан >> Баку


АРХИВ ПОГОДЫ в Баку

Время (UTC), дата Ветер
(напр.,м/с)
 
Видим.   Явления Облачность Т
(С)
Тd
(С)
f
(%)
Тe
(С)
Тes
(С)
Комфортность P
(гПа)
Po
(гПа)
Тmin
(С)
Tmax
(С)
R
(мм)
R24
(мм)
S
(см)
15 18.08 СВ 3 10 км ясно +30.0 +13.2 36 +31 +31 жарко 1009.1 1009.2
18 18.08 СВ 1 10 км ясно +25.3 +14.2 50 +28 +28 жарко 1009.8 1009.9 +33.8
21 18.08 С 5 10 км ясно +22.1 +14.5 62 +25 +25 комфорт 1010.4 1010.5
00 19.08 СЗ 3 10 км ясно +20.4 +16.0 76 +24 +24 комфорт 1010.7 1010.8
03 19.08 Ю 2 10 км ясно +21.4 +15.0 67 +25 +25 комфорт 1012.1 1012.2
06 19.08 СВ 3 10 км ясно +32.6 +13.2 31 +34 +43 очень
жарко
1013.1 1013.2 +19.1
09 19.08 ЮВ 3 10 км ясно +34.9 +6.8 18 +33 +47 жарко 1013.4 1013.5
12 19.08 СВ 2 10 км ясно +35.7 +9.0 20 +34 +43 очень
жарко
1013.2 1013.3
15 19.08 ЮВ 2 10 км ясно +29.2 +19.4 56 +35 +35 очень
душно
1013.6 1013.7
18 19.08 ЮЗ 3 10 км ясно +23.8 +19.1 75 +29 +29 душно 1014.6 1014.7 +36.6
21 19.08 З 2 10 км ясно +23.4 +20.3 83 +31 +31 очень
душно
1014.3 1014.4
00 20.08 З 2 10 км ясно +22.2 +19.9 87 +28 +28 душно 1014.2 1014.3
03 20.08 З 2 10 км ясно +21.7 +19.8 89 +27 +28 душно 1015.1 1015.2
06 20.08 С 4 10 км ясно +30.2 +19.4 52 +36 +43 очень
душно
1015.8 1015.9 +21.0
09 20.08 В 6 10 км ясно +33.3 +16.4 36 +36 +43 очень
душно
1015.5 1015.6
12 20.08 СВ 4 10 км ясно +34.0 +13.0 28 +34 +40 очень
жарко
1014.8 1014.9
15 20.08 В 2 10 км ясно +32.0 +12.1 30 +32 +33 жарко 1014.5 1014.6
18 20.08 штиль 0 10 км ясно +26.1 +16.4 55 +30 +30 душно 1014.9 1015.0 +34.6
21 20.08 З 2 10 км ясно +23.2 +16.4 66 +28 +28 душно 1014.6 1014.7
00 21.08 СЗ 2 10 км ясно +21.3 +13.9 63 +24 +24 комфорт 1014.0 1014.1
03 21.08 З 2 10 км ясно +21.3 +14.5 65 +24 +25 комфорт 1014.1 1014.2
06 21.08 З 2 10 км ясно +31.1 +14.6 37 +33 +44 душно 1014.9 1015.0 +19.8
09 21.08 СЗ 2 10 км ясно +36.0 +9.9 20 +35 +51 опасность
солнечного
удара
1013.5 1013.6
12 21.08 В 2 10 км ясно +35.7 +11.8 24 +35 +44 очень
жарко
1012.4 1012.5
15 21.08 ЮВ 4 10 км ясно +31.9 +19.8 49 +38 +38 очень
душно
1011.7 1011.8
18 21.08 ЮВ 4 10 км ясно +26.6 +21.4 73 +34 +34 очень
душно
1011.8 1011.9 +37.6
21 21.08 штиль 0 10 км ясно +24.6 +22.5 88 +32 +32 очень
душно
1011.5 1011.6
00 22.08 штиль 0 10 км ясно +22.3 +20.4 89 +29 +29 очень
душно
1011.0 1011.1
03 22.08 штиль 0 10 км ясно +22.0 +19.5 86 +28 +29 душно 1011.2 1011.3
06 22.08 штиль 0 10 км ясно +33.5 +10.2 24 +33 +47 жарко 1011.0 1011.1 +21.0
09 22.08 Ю 4 10 км ясно +36.5 +5.1 14 +34 +45 очень
жарко
1010.4 1010.5
12 22.08 ЮВ 4 10 км ясно +37.0 +6.4 15 +34 +40 очень
жарко
1009.6 1009.7
15 22.08 ЮВ 3 10 км ясно +32.8 +8.6 22 +31 +32 жарко 1009.3 1009.4
18 22.08 Ю 3 10 км ясно +25.8 +19.6 69 +31 +31 очень
душно
1010.3 1010.4 +37.7
21 22.08 З 4 10 км ясно +24.3 +20.8 81 +30 +30 очень
душно
1010.3 1010.4
00 23.08 С 3 10 км ясно +23.7 +20.0 80 +29 +29 душно 1010.3 1010.4
03 23.08 СЗ 2 10 км ясно +22.5 +21.2 92 +30 +30 очень
душно
1010.5 1010.6
06 23.08 С 2 10 км ясно +33.1 +13.0 30 +34 +44 очень
жарко
1010.9 1011.0 +21.2
09 23.08 С 4 10 км ясно +36.7 +16.2 30 +39 +50 очень
душно
1010.7 1010.8
12 23.08 В 5 10 км ясно +38.6 +13.1 22 +39 +43 душно 1010.0 1010.1
15 23.08 ЮВ 3 10 км ясно +31.4 +20.3 52 +38 +38 очень
душно
1011.1 1011.2
18 23.08 СВ 4 10 км ясно +27.6 +22.5 74 +36 +36 очень
душно
1010.7 1010.8 +39.6
21 23.08 ЮЗ 2 10 км ясно +25.5 +20.5 74 +32 +32 очень
душно
1010.4 1010.5
00 24.08 С 2 10 км ясно +23.2 +18.4 74 +29 +29 душно 1010.4 1010.5
03 24.08 СВ 2 10 км ясно +24.1 +20.6 81 +30 +31 очень
душно
1011.3 1011.4
06 24.08 ЮВ 9 10 км ясно +34.7 +13.4 28 +35 +36 очень
жарко
1011.9 1012.0 +21.8
09 24.08 ЮВ 6 10 км ясно +35.7 +14.7 29 +37 +44 душно 1011.8 1011.9
12 24.08 ЮВ 6 10 км ясно +35.2 +14.6 29 +36 +39 очень
жарко
1011.4 1011.5
15 24.08 СВ 5 10 км ясно +31.2 +18.2 46 +36 +36 очень
душно
1011.4 1011.5
18 24.08 СВ 2 10 км ясно +27.7 +18.5 57 +33 +33 очень
душно
1012.1 1012.2 +36.6
21 24.08 С 2 10 км ясно +25.2 +18.6 67 +30 +30 душно 1011.8 1011.9
00 25.08 С 2 10 км ясно +24.0 +18.1 70 +28 +28 душно 1011.4 1011.5
03 25.08 штиль 0 10 км ясно +22.2 +18.6 80 +27 +28 душно 1012.2 1012.3
06 25.08 С 3 10 км ясно +31.0 +18.4 47 +36 +44 очень
душно
1013.2 1013.3 +21.4
09 25.08 С 5 10 км ясно +31.5 +19.2 48 +37 +46 очень
душно
1012.5 1012.6
12 25.08 С 3 10 км ясно +31.8 +15.1 36 +34 +40 душно 1011.7 1011.8

 

Местоположение метеостанции Баку (Азербайджан): широта 40.45 долгота 50.07 высота над уровнем моря -1 м.

В архиве по умолчанию представлена погода в Баку за последнюю неделю. Архивные данные за месяц целиком и за предыдущие месяцы, начиная с января 2011 года, Вы можете получить, выбрав интересующий диапазон дат из раскрывающегося списка и нажав кнопку "Ввод!".


*Определитесь, кто Вы:
робот инопланетянин человек

Внимание! Время в таблицах - всемирное. Для получения местного времени необходимо прибавить поправку, которая равна 4 ч.

Смотрите также архив погоды в соседних городах и на ближайших метеорологических станциях:

Погода в Баку (дендропарк) (Азербайджан) (25 км)
Погода в Алате (Азербайджан) (78 км)
Погода в Маразе (Азербайджан) (97 км)
Погода в Шемахе (Азербайджан) (123 км)
Погода в Нефтечале (Азербайджан) (136 км)
Погода в Курдамире (Азербайджан) (162 км)
Погода в Губе (Азербайджан) (166 км)
Погода в Габале (Азербайджан) (195 км)
Погода в Геокчае (Азербайджан) (197 км)
Погода в Парсабаде (Иран) (204 км)

Пояснения к столбцам:

Ветер - указаны скорость ветра в м/с - средняя за 10 мин, порывы в срок и между сроками (в фигурных скобках) и направление, откуда дует ветер: С - северный, СВ - северо-восточный, В - восточный, ЮВ - юго-восточный, Ю - южный, ЮЗ - юго-западный, З - западный, СЗ - северо-западный.
Видимость - горизонтальная дальность видимости в метрах или километрах. При видимости от 1 до 10 км при отсутствии осадков обычно наблюдается дымка, при ухудшении видимости до 1 км и менее - туман. В сухую погоду видимость может ухудшаться дымом, пылью или мглою.
Явления - указаны атмосферные явления, наблюдавшиеся в срок или в последний час перед сроком; фигурными скобками обозначены явления, наблюдавшиеся между сроками (за 1-3 часа до срока); квадратными скобками обозначены град или гололедные отложения с указанием их диаметра в мм.
Облачность - указаны через наклонную черту общая и нижняя облачность в баллах и высота нижней границы облаков в метрах; квадратными скобками обозначены формы облаков: Ci - перистые, Cs - перисто-слоистые, Cc - перисто-кучевые, Ac - высококучевые, As - высокослоистые, Sc - слоисто-кучевые, Ns - слоисто-дождевые, Cu - кучевые, Cb - кучево-дождевые. Подробнее классификацию облаков см. в Атласе облаков (PDF).
T - Температура воздуха - температура, измеренная на высоте 2 м над землей.
Td - Температура точки росы - температура, при понижении до которой содержащийся в воздухе водяной пар достигнет насыщения.
f - Относительная влажность воздуха - влажноcть воздуха, измеренная на высоте 2 м над землей.
Te - Эффективная температура - температура, которую ощущает одетый по сезону человек в тени. Характеристика душности погоды. При расчете учитывается влияние влажности воздуха и скорости ветра на теплоощущения человека.
Tes - Эффективная температура на солнце - температура, которую ощущает человек, с поправкой на солнечный нагрев. Характеристика знойности погоды. Зависит от высоты солнца над горизонтом, облачности и скорости ветра. Ночью, в пасмурную погоду, а также при ветре 12 м/с и более поправка равна нулю.
P - Атмосферное давление - приведенное к уровню моря атмосферное давление.
Po - Атмосферное давление - измеренное на уровне метеостанции атмосферное давление.
Tmin - Минимальная температура - минимум температуры воздуха на высоте 2 м над землей.
Tmax - Максимальная температура - максимум температуры воздуха на высоте 2 м над землей.
R - Количество осадков - Количество выпавших осадков за период времени, мм. При наведении курсора мыши на число - период времени, за который выпало указанное количество осадков.
R24 - Количество осадков - Количество выпавших осадков за 24 часа, мм.
S - Снежный покров - Высота снежного покрова, см. При наведении курсора мыши на число - состояние снежного покрова и степень покрытия местности в баллах.